CW3660 Weather Reports


Display with metric or nautical units.
time (UTC)temp
F
wind
direction
speed
MPH
gust
MPH
rain 1hr
in
rain 24hr
in
rain mn
in
humidity
%
barometer
mb
20260505230036 75 203 6.0 17.0 0.00 0.00 0.00 42 1006.1
20260505225015 76 203 8.0 18.0 0.00 0.00 0.00 41 1005.9
20260505224016 76 225 8.0 28.0 0.00 0.00 0.00 41 1005.7
20260505223036 77 203 7.0 22.0 0.00 0.00 0.00 41 1005.5
20260505222015 78 203 7.0 20.0 0.00 0.00 0.00 40 1005.2
20260505221016 78 225 7.0 18.0 0.00 0.00 0.00 40 1005.1
20260505220036 78 203 9.0 23.0 0.00 0.00 0.00 39 1005.1
20260505215036 79 203 8.0 22.0 0.00 0.00 0.00 38 1005.3
20260505214016 79 225 8.0 28.0 0.00 0.00 0.00 37 1005.1
20260505213036 80 203 7.0 29.0 0.00 0.00 0.00 36 1005.0
20260505212016 81 225 8.0 21.0 0.00 0.00 0.00 35 1004.9
20260505211015 81 225 9.0 25.0 0.00 0.00 0.00 35 1004.8
20260505210015 81 203 8.0 20.0 0.00 0.00 0.00 34 1004.7
20260505205035 81 203 9.0 28.0 0.00 0.00 0.00 34 1004.7
20260505204015 82 225 6.0 20.0 0.00 0.00 0.00 34 1004.7
20260505203015 82 203 6.0 18.0 0.00 0.00 0.00 34 1004.6
20260505202015 82 225 8.0 21.0 0.00 0.00 0.00 34 1004.7
20260505201015 82 225 9.0 22.0 0.00 0.00 0.00 34 1004.7
20260505200035 83 203 7.0 17.0 0.00 0.00 0.00 33 1004.7
20260505195016 83 225 8.0 20.0 0.00 0.00 0.00 35 1004.8
20260505194015 83 203 9.0 17.0 0.00 0.00 0.00 34 1004.8
20260505193035 83 203 9.0 21.0 0.00 0.00 0.00 34 1004.9
20260505192015 83 225 8.0 18.0 0.00 0.00 0.00 34 1005.2
20260505191015 83 225 8.0 21.0 0.00 0.00 0.00 34 1005.2
20260505190035 83 225 9.0 23.0 0.00 0.00 0.00 33 1005.5
20260505185017 84 203 6.0 19.0 0.00 0.00 0.00 32 1005.5
20260505184017 83 248 8.0 27.0 0.00 0.00 0.00 33 1005.6
20260505183017 83 225 9.0 23.0 0.00 0.00 0.00 33 1005.9
20260505182017 83 225 8.0 32.0 0.00 0.00 0.00 34 1006.1
20260505181057 83 225 6.0 21.0 0.00 0.00 0.00 35 1006.3
20260505180017 84 203 5.0 21.0 0.00 0.00 0.00 34 1006.3
20260505175038 83 225 5.0 15.0 0.00 0.00 0.00 37 1006.3
20260505174037 82 203 6.0 20.0 0.00 0.00 0.00 37 1006.6
20260505173017 82 225 6.0 17.0 0.00 0.00 0.00 39 1006.8
20260505172017 81 203 6.0 17.0 0.00 0.00 0.00 38 1007.0
20260505171017 81 225 5.0 10.0 0.00 0.00 0.00 39 1007.2
20260505170037 80 180 7.0 16.0 0.00 0.00 0.00 39 1007.5
20260505165017 80 203 6.0 18.0 0.00 0.00 0.00 40 1007.6
20260505164017 79 225 6.0 20.0 0.00 0.00 0.00 41 1007.7
20260505163017 80 203 5.0 17.0 0.00 0.00 0.00 40 1007.8
20260505162017 79 158 5.0 13.0 0.00 0.00 0.00 42 1008.1
20260505161017 79 225 4.0 8.0 0.00 0.00 0.00 43 1008.4
20260505153017 75 180 5.0 11.0 0.00 0.00 0.00 47 1008.8
20260505152017 74 203 4.0 10.0 0.00 0.00 0.00 49 1009.0
20260505151017 73 225 3.0 8.0 0.00 0.00 0.00 50 1009.1
20260505125017 64 248 3.0 8.0 0.00 0.00 0.00 63 1009.3
20260505124016 63 248 3.0 8.0 0.00 0.00 0.00 65 1009.4
20260505123016 61 203 3.0 11.0 0.00 0.00 0.00 68 1009.4
20260505122016 60 180 2.0 6.0 0.00 0.00 0.00 70 1009.4
20260505121017 59 203 3.0 10.0 0.00 0.00 0.00 71 1009.5
20260505120016 59 225 2.0 7.0 0.00 0.00 0.00 72 1009.3
20260505115016 58 248 2.0 7.0 0.00 0.00 0.00 72 1009.5
20260505114017 58 158 3.0 8.0 0.00 0.00 0.00 73 1009.3
20260505113016 57 158 3.0 7.0 0.00 0.00 0.00 75 1009.3
20260505112016 55 158 2.0 6.0 0.00 0.00 0.00 76 1009.4
20260505111037 55 158 3.0 8.0 0.00 0.00 0.00 77 1009.2
20260505102016 54 180 3.0 7.0 0.00 0.00 0.00 77 1009.2
20260505101016 53 180 2.0 5.0 0.00 0.00 0.00 77 1009.1
20260505100017 53 180 2.0 5.0 0.00 0.00 0.00 76 1009.1
20260505095017 53 180 2.0 6.0 0.00 0.00 0.00 76 1009.1
20260505094016 53 158 2.0 5.0 0.00 0.00 0.00 76 1009.1
20260505093017 53 158 2.0 5.0 0.00 0.00 0.00 75 1009.2
20260505092037 53 158 2.0 6.0 0.00 0.00 0.00 75 1009.1
20260505091016 53 180 2.0 7.0 0.00 0.00 0.00 75 1009.2
20260505090017 53 180 3.0 8.0 0.00 0.00 0.00 75 1009.1
20260505085016 53 180 3.0 6.0 0.00 0.00 0.00 75 1009.3
20260505084016 52 180 2.0 7.0 0.00 0.00 0.00 75 1009.2
20260505083016 52 180 2.0 5.0 0.00 0.00 0.00 75 1009.4
20260505082016 53 180 2.0 6.0 0.00 0.00 0.00 74 1009.4
20260505081016 53 180 2.0 4.0 0.00 0.00 0.00 74 1009.4
20260505080016 53 158 2.0 4.0 0.00 0.00 0.00 73 1009.4
20260505075016 53 158 2.0 4.0 0.00 0.00 0.00 73 1009.5
20260505074016 53 158 2.0 6.0 0.00 0.00 0.00 72 1009.6
20260505073016 53 180 3.0 5.0 0.00 0.00 0.00 72 1009.6
20260505072016 54 180 2.0 7.0 0.00 0.00 0.00 71 1009.5
20260505071016 54 180 2.0 5.0 0.00 0.00 0.00 71 1009.6
20260505070036 54 203 3.0 7.0 0.00 0.00 0.00 71 1009.7
20260505065016 54 180 3.0 9.0 0.00 0.00 0.00 70 1009.7
20260505064016 54 180 2.0 6.0 0.00 0.00 0.00 70 1009.7
20260505063016 54 180 2.0 5.0 0.00 0.00 0.00 69 1009.7
20260505062016 54 225 2.0 5.0 0.00 0.00 0.00 69 1009.7
20260505061016 55 180 2.0 5.0 0.00 0.00 0.00 69 1009.7
20260505060016 55 180 2.0 7.0 0.00 0.00 0.00 68 1009.8
20260505055016 55 225 2.0 7.0 0.00 0.00 0.00 68 1009.8
20260505054016 55 180 2.0 5.0 0.00 0.00 0.00 68 1009.8
20260505053016 55 158 2.0 9.0 0.00 0.00 0.00 67 1009.9
20260505052016 55 203 3.0 6.0 0.00 0.00 0.00 67 1009.8
20260505051016 55 180 3.0 7.0 0.00 0.00 0.00 67 1009.8
20260505041016 57 225 3.0 9.0 0.00 0.00 0.00 62 1009.8
20260505040016 57 203 3.0 8.0 0.00 0.00 0.00 61 1009.7
20260505035016 57 225 3.0 7.0 0.00 0.00 0.00 60 1009.6
20260505034016 57 203 3.0 7.0 0.00 0.00 0.00 59 1009.6
20260505033016 58 203 3.0 9.0 0.00 0.00 0.00 58 1009.5
20260505032016 58 203 3.0 9.0 0.00 0.00 0.00 58 1009.6
20260505031016 58 203 4.0 8.0 0.00 0.00 0.00 57 1009.5
20260505030016 58 203 3.0 11.0 0.00 0.00 0.00 56 1009.5
20260505025016 59 203 3.0 10.0 0.00 0.00 0.00 55 1009.5
20260505024016 59 180 4.0 11.0 0.00 0.00 0.00 54 1009.6
20260505023016 59 203 3.0 8.0 0.00 0.00 0.00 54 1009.6
20260505022016 60 180 3.0 11.0 0.00 0.00 0.00 53 1009.7
20260505021016 60 203 3.0 9.0 0.00 0.00 0.00 52 1009.7
20260505020016 60 180 3.0 10.0 0.00 0.00 0.00 52 1009.7
20260505015016 61 180 4.0 8.0 0.00 0.00 0.00 50 1009.5
20260505014016 61 203 3.0 8.0 0.00 0.00 0.00 50 1009.4
20260505013016 62 225 4.0 10.0 0.00 0.00 0.00 49 1009.2
20260505012017 62 225 4.0 9.0 0.00 0.00 0.00 49 1009.1
20260505011016 62 203 4.0 12.0 0.00 0.00 0.00 48 1008.9
20260505010016 63 225 5.0 14.0 0.00 0.00 0.00 47 1008.8
20260505005016 63 225 4.0 13.0 0.00 0.00 0.00 47 1008.6
20260505004016 63 203 4.0 12.0 0.00 0.00 0.00 46 1008.3
20260505003016 64 225 6.0 16.0 0.00 0.00 0.00 46 1008.0
20260505002016 64 203 6.0 20.0 0.00 0.00 0.00 45 1007.9
20260505001016 65 203 5.0 11.0 0.00 0.00 0.00 44 1007.7
20260505000016 65 203 5.0 18.0 0.00 0.00 0.00 43 1007.4
20260504235016 66 203 4.0 13.0 0.00 0.00 0.00 41 1007.2
20260504234016 67 203 5.0 13.0 0.00 0.00 0.00 40 1006.9
20260504233036 68 203 6.0 14.0 0.00 0.00 0.00 37 1006.8
20260504232036 70 225 3.0 9.0 0.00 0.00 0.00 33 1006.5
20260504231015 70 248 3.0 8.0 0.00 0.00 0.00 33 1006.2